Volver al catálogo

BREEZE-M DEB

ActivoHEO
NORAD 38651·DEBRIS·🇷🇺 Russia

Lanzado Mar 14, 2008 desde Baikonur Cosmodrome

Loading…

Próximos Pases (próximas 24 horas)

TLE

ActualizadoSource: Space-Track

Época: Sep 14, 2026, 14:19 UTC

1 38651U 08011DA  26257.59690764 -.00000107  00000-0 -16914-3 0  9995
2 38651  49.2717  14.6390 6369358 219.1201  74.6151  3.06140160177611

Sigue BREEZE-M DEB en tiempo real con AllMySat

Download on the App Store